SCP
-0 -0 0 0 0 0 -0 -0 -0 -0 -0 -0 -0 -0 -0 0 0 0 0 -0 -0 0 0 0 0 -0 -0 -0 -0 0 0 0 0 0 0 -0 -0 -0 -0 -0 -0 -0 -0
-0 -0 0 0 0 0 0 -0 -0 -0 -0 0 0 0 0 0 0 0 -0 0 0 0 0 0 0 0 -0 0 -0 -0 0 0 0 0 0 0 0 -0 -0 0 0 0 0
-0 -0 -0 0 0 0 0 0 -0 -0 -0 0 0 0 0 0 0 0 0 0 -0 -0 0 0 -0 -0 -0 0 0 -0 0 0 0 0 0 0 0 -0 -0 0 0 -0 -0
0 -0 -0 0 0 0 0 0 -0 -0 -0 0 -0 0 0 0 0 -0 0 0 -0 -0 -0 -0 -0 -0 -0 -0 -0 -0 -0 0 0 0 0 0 0 0 0 0 0 -0 -0
0 -0 -0 0 0 0 0 0 -0 0 0 -0 -0 -0 -0 0 0 0 0 0 -0 -0 -0 -0 -0 -0 -0 -0 0 0 0 0 0 0 0 0 0 0 -0 -0 -0 -0 -0
0 -0 -0 0 0 0 -0 0 -0 -0 -0 -0 -0 -0 -0 0 0 0 0 0 0 0 0 -0 -0 -0 -0 0 0 0 0 0 0 0 0 0 0 0 -0 -0 -0 -0 -0
0 0 -0 -0 0 0 0 0 0 -0 -0 -0 0 -0 -0 0 0 0 -0 0 0 0 0 0 -0 -0 -0 -0 -0 0 0 0 0 0 0 0 0 0 -0 0 0 -0 -0
0 0 0 -0 -0 0 0 0 -0 -0 -0 -0 -0 -0 -0 -0 -0 0 -0 -0 0 0 0 0 0 0 0 -0 0 0 -0 -0 -0 -0 0 0 0 -0 0 0 0 -0 -0
0 0 0 0 -0 0 0 0 0 0 -0 -0 0 -0 -0 -0 0 0 -0 -0 -0 0 0 0 0 0 -0 0 -0 0 -0 0 -0 -0 0 0 0 -0 0 -0 0 -0 -0
0 0 0 0 0 0 -0 0 -0 -0 -0 -0 -0 -0 -0 -0 0 -0 -0 0 -0 -0 0 0 0 -0 -0 0 0 0 0 0 -0 -0 -0 0 0 -0 0 -0 -0 -0 -0
0 0 0 0 0 0 0 0 0 -0 -0 0 -0 -0 -0 -0 -0 -0 -0 0 -0 -0 -0 0 0 -0 -0 -0 0 -0 0 -0 -0 0 -0 0 0 -0 -0 -0 -0 -0 -0
-0 0 0 0 0 0 0 0 -0 -0 -0 -0 -0 -0 -0 -0 -0 -0 0 -0 -0 -0 -0 -0 0 -0 -0 0 -0 0 -0 -0 -0 -0 -0 0 -0 -0 -0 -0 -0 -0 -0
0 0 -0 0 0 0 0 -0 0 -0 -0 -0 -0 -0 -0 -0 -0 -0 -0 -0 -0 0 -0 -0 0 0 0 -0 -0 -0 -0 -0 -0 -0 0 0 -0 0 -0 0 -0 -0 -0
0 -0 0 0 -0 -0 -0 -0 -0 -0 -0 -0 -0 -0 -0 -0 -0 -0 -0 -0 -0 -0 0 0 0 0 -0 -0 -0 -0 -0 -0 0 0 0 0 -0 -0 -0 -0 -0 -0 0
-0 -0 -0 -0 -0 -0 -0 -0 -0 -0 -0 -0 -0 0 0 -0 -0 -0 -0 -0 -0 0 0 -0 -0 0 0 -0 -0 -0 -0 0 0 0 -0 0 -0 -0 -0 0 -0 -0 0
-0 0 0 -0 -0 -0 -0 -0 -0 -0 -0 -0 -0 0 0 0 0 -0 -0 0 0 0 -0 0 -0 -0 0 -0 -0 0 0 0 -0 -0 -0 -0 -0 0 0 0 0 -0 0
-0 -0 -0 -0 -0 -0 -0 -0 -0 -0 -0 -0 -0 -0 0 0 -0 0 -0 -0 0 -0 0 -0 -0 0 0 -0 -0 0 0 0 -0 -0 -0 -0 -0 0 0 0 0 0 -0
-0 -0 -0 -0 -0 -0 -0 -0 -0 -0 -0 -0 -0 0 -0 0 -0 -0 0 -0 -0 -0 0 -0 -0 -0 0 0 -0 -0 0 -0 -0 -0 -0 0 -0 0 0 0 0 -0 -0
-0 -0 -0 -0 -0 0 -0 -0 -0 -0 -0 -0 -0 -0 -0 -0 -0 -0 0 -0 0 -0 0 -0 0 -0 -0 0 0 0 0 -0 0 0 0 0 0 0 0 0 0 -0 -0
-0 -0 -0 0 -0 -0 -0 -0 -0 -0 -0 -0 -0 0 0 0 0 0 -0 -0 -0 -0 -0 -0 0 -0 -0 -0 0 0 0 0 0 0 0 -0 -0 0 0 0 0 0 0
-0 0 0 0 -0 0 0 0 -0 0 -0 -0 0 0 0 0 0 0 0 -0 -0 -0 0 -0 0 -0 0 -0 0 0 0 0 -0 -0 -0 -0 -0 0 -0 0 0 0 0
0 0 0 -0 -0 -0 0 0 0 0 0 0 0 0 0 0 0 0 0 0 0 0 -0 -0 -0 0 0 0 0 0 0 0 0 0 -0 -0 0 0 -0 -0 -0 -0 -0
0 0 0 -0 -0 -0 -0 0 0 0 0 0 -0 0 0 0 0 0 0 0 0 0 -0 -0 -0 0 0 0 0 0 0 0 0 0 0 -0 -0 0 -0 -0 -0 -0 -0
-0 0 0 -0 -0 -0 -0 0 0 0 0 0 0 0 0 0 0 0 0 0 0 0 -0 -0 -0 0 0 0 0 0 0 0 0 -0 -0 -0 -0 0 -0 0 -0 0 -0
-0 -0 -0 -0 -0 -0 -0 -0 -0 -0 0 0 0 0 0 0 0 0 0 0 0 0 0 -0 0 0 0 0 0 0 0 0 0 0 -0 -0 0 -0 -0 -0 -0 0 -0
-0 -0 -0 -0 -0 -0 -0 -0 -0 -0 -0 -0 0 0 0 0 0 0 0 0 0 0 0 -0 0 0 0 0 0 0 0 0 0 0 0 0 -0 0 0 0 0 0 0
Wind_Speed_500mb
45 48 48 43 43 37 40 40 39 38 36 32 28 26 23 21 20 19 20 20 18 15 18 21 21 20 18 21 24 23 24 28 33 34 32 34 34 35 33 32 34 37 39
56 55 51 45 45 40 39 39 38 37 35 31 26 22 20 18 17 16 17 19 18 17 20 22 25 27 33 35 31 24 25 27 30 33 33 33 30 31 31 33 33 34 32
61 57 51 48 48 44 40 37 34 33 31 28 25 21 18 19 19 17 17 21 22 24 25 27 31 30 32 33 25 27 28 29 27 29 27 29 33 32 30 29 30 31 32
62 57 52 51 50 44 40 34 30 30 29 26 23 20 19 21 19 15 16 25 27 29 27 31 32 30 33 31 25 28 26 26 26 26 25 26 30 31 32 30 30 30 31
61 60 53 51 49 44 39 33 30 30 28 25 22 21 21 24 22 23 27 36 34 29 27 30 30 29 30 27 26 24 24 23 24 26 25 30 27 25 25 25 27 27 27
59 58 54 48 46 43 37 32 29 25 24 22 22 22 22 25 25 30 36 38 33 29 27 27 29 27 27 26 23 21 21 21 21 22 23 23 25 26 24 24 24 23 25
55 53 52 45 42 40 35 31 27 22 21 21 22 23 22 24 26 28 33 33 29 26 25 27 28 26 24 20 18 19 21 19 17 21 20 21 22 21 23 20 21 22 24
50 49 50 44 40 39 33 28 23 19 17 18 19 21 21 22 24 26 28 27 25 23 23 25 25 21 21 18 18 22 20 18 18 19 20 21 20 19 20 21 20 20 22
44 46 48 43 39 36 32 26 21 16 14 16 14 18 19 18 21 23 25 25 23 21 19 23 24 20 18 15 18 21 21 15 15 18 19 18 17 15 18 19 21 19 20
44 45 47 43 35 36 32 25 19 14 11 13 14 11 16 15 17 20 22 22 23 21 22 20 17 15 13 15 16 26 14 9 13 14 15 15 15 14 17 17 18 19 19
45 43 46 42 38 34 30 24 19 15 12 10 9 12 10 14 13 17 20 19 21 21 21 20 16 15 12 12 17 19 15 13 14 15 15 15 16 15 15 17 17 20 21
49 46 44 39 37 34 29 24 20 15 13 12 11 11 10 14 14 15 19 19 19 20 19 18 17 14 12 13 19 17 20 16 14 16 16 16 15 13 14 15 16 16 18
46 47 45 41 36 34 29 24 20 17 15 14 16 16 15 15 16 15 17 19 20 20 21 23 17 11 3 9 25 19 17 14 12 14 13 14 13 11 14 15 14 16 16
46 48 48 44 39 33 29 23 19 17 16 15 17 20 18 19 17 18 16 17 17 19 22 24 20 13 8 16 27 22 17 13 9 9 14 15 12 11 11 12 12 14 14
44 50 47 42 40 34 30 24 22 19 17 20 23 17 18 18 19 21 20 21 22 23 23 24 20 16 10 16 20 18 20 12 8 9 12 15 11 15 12 12 15 14 15
49 46 39 42 39 36 30 25 22 22 18 22 21 21 17 16 17 14 19 25 27 26 26 25 23 11 16 19 19 14 14 14 12 10 12 14 17 20 8 16 15 13 14
66 42 42 43 41 41 34 25 26 23 23 22 19 19 17 16 15 12 20 21 27 28 32 30 25 18 13 16 24 16 15 13 14 11 9 11 16 18 10 12 14 15 14
62 44 40 39 43 37 36 29 28 28 23 23 20 22 19 17 15 16 18 25 28 31 33 33 24 18 18 18 25 20 15 14 10 15 12 8 14 16 8 10 10 17 15
57 46 43 44 41 34 32 29 29 32 27 20 23 27 24 19 17 14 16 19 28 30 36 33 30 23 27 24 25 24 21 18 16 18 18 16 15 13 9 4 11 13 15
59 51 47 47 47 41 32 33 34 37 35 26 25 24 20 22 17 16 16 22 23 30 35 35 30 29 25 25 24 24 18 17 18 21 21 23 20 20 15 14 8 14 15
61 57 54 49 49 47 45 42 43 43 41 37 32 31 27 24 20 20 17 20 23 27 32 36 34 32 30 28 30 29 24 17 17 20 23 26 26 21 19 20 17 13 15
65 63 59 57 53 52 51 50 47 43 41 40 37 38 35 32 27 24 20 22 25 27 31 39 37 35 30 27 28 26 22 25 25 21 27 25 23 21 20 23 22 21 17
76 70 66 63 58 58 57 55 54 53 51 48 47 44 45 39 33 30 25 23 23 29 34 41 38 36 32 30 25 17 14 18 25 28 25 29 26 24 23 23 25 25 25
81 75 71 68 69 68 65 64 60 60 56 48 47 43 43 41 36 34 30 28 26 30 38 44 39 39 36 31 31 30 17 8 11 9 27 23 21 24 22 18 23 25 22
86 84 81 80 77 71 69 69 65 66 63 50 46 49 49 44 42 38 33 33 32 33 39 48 44 43 40 34 31 29 31 20 10 9 9 24 25 25 21 24 22 23 26
84 88 87 85 85 82 78 74 74 73 65 58 54 53 53 45 41 42 41 39 37 36 39 51 47 44 40 39 34 32 32 27 20 19 12 5 17 13 15 19 16 20 22
Wind_Direction_500mb
158 148 148 145 134 129 131 132 133 132 133 132 132 131 127 123 123 133 139 138 133 130 111 114 115 115 137 142 138 125 114 113 115 115 113 114 116 115 114 116 115 117 119
154 150 151 149 139 132 132 130 129 131 133 131 127 120 116 116 119 133 143 156 159 136 120 116 111 105 111 127 126 131 119 112 112 116 114 114 122 118 119 115 113 112 114
153 150 151 149 144 138 136 130 129 129 126 126 122 116 110 112 117 126 140 150 151 137 124 115 115 116 117 121 124 118 118 122 114 113 115 108 110 116 119 123 123 121 117
154 153 151 150 148 140 138 130 130 132 129 125 120 114 110 111 111 107 146 155 146 133 121 118 121 122 119 117 119 115 113 114 118 120 111 119 123 121 121 120 120 118 120
156 156 151 151 151 144 142 135 130 128 122 118 113 112 113 112 108 94 107 138 137 128 118 124 126 126 125 122 121 120 123 122 116 114 109 108 120 126 130 129 123 120 122
156 159 158 156 156 150 146 139 131 126 121 115 104 103 112 114 114 109 109 123 132 127 129 127 126 124 127 131 126 120 129 119 119 110 111 109 108 113 115 117 115 118 122
158 162 164 163 159 156 153 146 136 124 116 115 106 106 113 120 120 124 121 122 126 124 128 124 118 122 121 133 138 124 117 119 117 119 118 120 121 118 123 123 120 117 116
162 165 165 166 163 161 159 153 140 130 117 113 106 107 112 127 127 132 134 130 133 132 131 126 130 126 125 116 145 132 127 115 122 128 126 127 125 130 130 127 124 122 121
171 170 168 167 166 167 166 159 149 138 121 118 111 112 115 127 135 135 142 144 144 139 137 137 136 137 129 113 145 151 134 113 120 133 130 132 134 138 137 132 134 130 129
176 176 175 171 168 175 173 168 162 153 142 135 127 122 122 126 140 144 146 146 151 154 152 155 153 153 152 125 126 158 136 123 138 146 143 142 142 142 147 146 138 138 133
182 180 180 178 177 179 181 179 179 173 165 158 148 141 146 138 145 152 151 151 152 162 170 178 184 184 175 162 158 153 144 156 153 151 150 150 153 156 156 157 153 152 143
184 182 184 185 186 186 192 192 186 184 188 184 180 174 176 158 159 162 162 165 158 162 168 179 183 172 166 205 186 165 160 155 163 169 158 155 166 171 164 164 155 156 150
184 186 189 188 193 195 198 196 194 194 203 198 198 188 191 173 170 172 168 178 173 171 175 189 192 198 183 168 171 176 160 158 166 174 173 166 172 184 182 179 169 156 155
190 191 195 192 196 197 198 202 204 209 211 199 196 188 190 190 178 188 187 183 179 183 190 199 198 190 137 133 165 182 175 169 174 187 184 171 178 184 208 195 187 170 168
197 198 197 193 195 198 201 201 204 209 203 197 189 188 191 197 204 203 206 202 190 191 197 204 195 186 145 161 161 173 196 192 185 184 183 180 159 191 204 214 226 192 189
188 196 197 200 200 198 192 195 200 189 181 183 191 196 194 183 184 193 206 207 206 202 202 202 187 197 210 179 182 163 183 194 179 170 178 179 175 220 215 219 216 208 206
185 197 195 197 197 199 196 193 191 186 191 192 188 190 197 196 196 196 201 205 216 209 198 192 198 192 170 166 182 183 180 190 194 182 172 183 196 216 232 204 209 208 210
194 198 196 199 198 197 200 203 204 202 213 216 213 216 209 198 201 211 213 221 220 207 205 204 207 206 199 194 187 186 203 197 205 222 223 201 201 211 235 221 213 215 207
206 204 206 210 209 204 205 209 217 223 232 223 220 225 226 220 209 227 223 218 208 211 211 208 212 214 201 191 195 193 215 225 222 219 229 226 210 210 216 250 212 202 207
217 221 223 223 222 219 217 218 225 230 228 219 221 218 226 220 225 234 226 216 221 214 211 206 213 204 198 201 210 214 240 233 221 220 215 210 214 221 223 233 235 221 217
214 218 221 226 225 222 224 225 228 235 227 227 227 225 228 227 227 245 234 232 231 223 216 209 209 206 212 218 220 226 234 234 216 221 222 215 222 229 231 231 234 234 239
217 222 225 224 225 227 232 234 237 243 239 235 235 237 238 233 233 238 248 264 227 224 209 203 204 203 208 203 205 219 227 236 241 233 222 221 226 226 228 232 227 230 237
221 222 225 228 230 233 237 238 241 245 246 239 234 234 235 241 239 246 251 262 242 226 212 204 205 202 203 201 202 210 209 232 232 228 227 225 226 231 238 240 233 233 235
226 225 227 231 235 238 238 237 239 241 243 242 238 238 240 245 246 248 250 249 249 230 214 210 208 212 209 209 211 217 222 209 201 217 220 220 220 230 231 232 232 238 242
225 228 230 231 235 238 240 242 245 245 247 249 247 241 244 246 246 247 252 251 247 242 222 214 215 214 214 215 219 221 229 241 219 224 238 223 228 233 229 232 235 234 237
225 231 235 236 239 240 242 245 247 246 242 245 246 246 246 248 249 253 251 250 249 244 228 215 215 218 223 226 231 225 227 231 241 239 239 222 225 236 248 243 246 248 241
Wind_Speed_850mb
45 48 48 43 43 37 40 40 39 38 36 32 28 26 23 21 20 19 20 20 18 15 18 21 21 20 18 21 24 23 24 28 33 34 32 34 34 35 33 32 34 37 39
56 55 51 45 45 40 39 39 38 37 35 31 26 22 20 18 17 16 17 19 18 17 20 22 25 27 33 35 31 24 25 27 30 33 33 33 30 31 31 33 33 34 32
61 57 51 48 48 44 40 37 34 33 31 28 25 21 18 19 19 17 17 21 22 24 25 27 31 30 32 33 25 27 28 29 27 29 27 29 33 32 30 29 30 31 32
62 57 52 51 50 44 40 34 30 30 29 26 23 20 19 21 19 15 16 25 27 29 27 31 32 30 33 31 25 28 26 26 26 26 25 26 30 31 32 30 30 30 31
61 60 53 51 49 44 39 33 30 30 28 25 22 21 21 24 22 23 27 36 34 29 27 30 30 29 30 27 26 24 24 23 24 26 25 30 27 25 25 25 27 27 27
59 58 54 48 46 43 37 32 29 25 24 22 22 22 22 25 25 30 36 38 33 29 27 27 29 27 27 26 23 21 21 21 21 22 23 23 25 26 24 24 24 23 25
55 53 52 45 42 40 35 31 27 22 21 21 22 23 22 24 26 28 33 33 29 26 25 27 28 26 24 20 18 19 21 19 17 21 20 21 22 21 23 20 21 22 24
50 49 50 44 40 39 33 28 23 19 17 18 19 21 21 22 24 26 28 27 25 23 23 25 25 21 21 18 18 22 20 18 18 19 20 21 20 19 20 21 20 20 22
44 46 48 43 39 36 32 26 21 16 14 16 14 18 19 18 21 23 25 25 23 21 19 23 24 20 18 15 18 21 21 15 15 18 19 18 17 15 18 19 21 19 20
44 45 47 43 35 36 32 25 19 14 11 13 14 11 16 15 17 20 22 22 23 21 22 20 17 15 13 15 16 26 14 9 13 14 15 15 15 14 17 17 18 19 19
45 43 46 42 38 34 30 24 19 15 12 10 9 12 10 14 13 17 20 19 21 21 21 20 16 15 12 12 17 19 15 13 14 15 15 15 16 15 15 17 17 20 21
49 46 44 39 37 34 29 24 20 15 13 12 11 11 10 14 14 15 19 19 19 20 19 18 17 14 12 13 19 17 20 16 14 16 16 16 15 13 14 15 16 16 18
46 47 45 41 36 34 29 24 20 17 15 14 16 16 15 15 16 15 17 19 20 20 21 23 17 11 3 9 25 19 17 14 12 14 13 14 13 11 14 15 14 16 16
46 48 48 44 39 33 29 23 19 17 16 15 17 20 18 19 17 18 16 17 17 19 22 24 20 13 8 16 27 22 17 13 9 9 14 15 12 11 11 12 12 14 14
44 50 47 42 40 34 30 24 22 19 17 20 23 17 18 18 19 21 20 21 22 23 23 24 20 16 10 16 20 18 20 12 8 9 12 15 11 15 12 12 15 14 15
49 46 39 42 39 36 30 25 22 22 18 22 21 21 17 16 17 14 19 25 27 26 26 25 23 11 16 19 19 14 14 14 12 10 12 14 17 20 8 16 15 13 14
66 42 42 43 41 41 34 25 26 23 23 22 19 19 17 16 15 12 20 21 27 28 32 30 25 18 13 16 24 16 15 13 14 11 9 11 16 18 10 12 14 15 14
62 44 40 39 43 37 36 29 28 28 23 23 20 22 19 17 15 16 18 25 28 31 33 33 24 18 18 18 25 20 15 14 10 15 12 8 14 16 8 10 10 17 15
57 46 43 44 41 34 32 29 29 32 27 20 23 27 24 19 17 14 16 19 28 30 36 33 30 23 27 24 25 24 21 18 16 18 18 16 15 13 9 4 11 13 15
59 51 47 47 47 41 32 33 34 37 35 26 25 24 20 22 17 16 16 22 23 30 35 35 30 29 25 25 24 24 18 17 18 21 21 23 20 20 15 14 8 14 15
61 57 54 49 49 47 45 42 43 43 41 37 32 31 27 24 20 20 17 20 23 27 32 36 34 32 30 28 30 29 24 17 17 20 23 26 26 21 19 20 17 13 15
65 63 59 57 53 52 51 50 47 43 41 40 37 38 35 32 27 24 20 22 25 27 31 39 37 35 30 27 28 26 22 25 25 21 27 25 23 21 20 23 22 21 17
76 70 66 63 58 58 57 55 54 53 51 48 47 44 45 39 33 30 25 23 23 29 34 41 38 36 32 30 25 17 14 18 25 28 25 29 26 24 23 23 25 25 25
81 75 71 68 69 68 65 64 60 60 56 48 47 43 43 41 36 34 30 28 26 30 38 44 39 39 36 31 31 30 17 8 11 9 27 23 21 24 22 18 23 25 22
86 84 81 80 77 71 69 69 65 66 63 50 46 49 49 44 42 38 33 33 32 33 39 48 44 43 40 34 31 29 31 20 10 9 9 24 25 25 21 24 22 23 26
84 88 87 85 85 82 78 74 74 73 65 58 54 53 53 45 41 42 41 39 37 36 39 51 47 44 40 39 34 32 32 27 20 19 12 5 17 13 15 19 16 20 22
Wind_Direction_850mb
158 148 148 145 134 129 131 132 133 132 133 132 132 131 127 123 123 133 139 138 133 130 111 114 115 115 137 142 138 125 114 113 115 115 113 114 116 115 114 116 115 117 119
154 150 151 149 139 132 132 130 129 131 133 131 127 120 116 116 119 133 143 156 159 136 120 116 111 105 111 127 126 131 119 112 112 116 114 114 122 118 119 115 113 112 114
153 150 151 149 144 138 136 130 129 129 126 126 122 116 110 112 117 126 140 150 151 137 124 115 115 116 117 121 124 118 118 122 114 113 115 108 110 116 119 123 123 121 117
154 153 151 150 148 140 138 130 130 132 129 125 120 114 110 111 111 107 146 155 146 133 121 118 121 122 119 117 119 115 113 114 118 120 111 119 123 121 121 120 120 118 120
156 156 151 151 151 144 142 135 130 128 122 118 113 112 113 112 108 94 107 138 137 128 118 124 126 126 125 122 121 120 123 122 116 114 109 108 120 126 130 129 123 120 122
156 159 158 156 156 150 146 139 131 126 121 115 104 103 112 114 114 109 109 123 132 127 129 127 126 124 127 131 126 120 129 119 119 110 111 109 108 113 115 117 115 118 122
158 162 164 163 159 156 153 146 136 124 116 115 106 106 113 120 120 124 121 122 126 124 128 124 118 122 121 133 138 124 117 119 117 119 118 120 121 118 123 123 120 117 116
162 165 165 166 163 161 159 153 140 130 117 113 106 107 112 127 127 132 134 130 133 132 131 126 130 126 125 116 145 132 127 115 122 128 126 127 125 130 130 127 124 122 121
171 170 168 167 166 167 166 159 149 138 121 118 111 112 115 127 135 135 142 144 144 139 137 137 136 137 129 113 145 151 134 113 120 133 130 132 134 138 137 132 134 130 129
176 176 175 171 168 175 173 168 162 153 142 135 127 122 122 126 140 144 146 146 151 154 152 155 153 153 152 125 126 158 136 123 138 146 143 142 142 142 147 146 138 138 133
182 180 180 178 177 179 181 179 179 173 165 158 148 141 146 138 145 152 151 151 152 162 170 178 184 184 175 162 158 153 144 156 153 151 150 150 153 156 156 157 153 152 143
184 182 184 185 186 186 192 192 186 184 188 184 180 174 176 158 159 162 162 165 158 162 168 179 183 172 166 205 186 165 160 155 163 169 158 155 166 171 164 164 155 156 150
184 186 189 188 193 195 198 196 194 194 203 198 198 188 191 173 170 172 168 178 173 171 175 189 192 198 183 168 171 176 160 158 166 174 173 166 172 184 182 179 169 156 155
190 191 195 192 196 197 198 202 204 209 211 199 196 188 190 190 178 188 187 183 179 183 190 199 198 190 137 133 165 182 175 169 174 187 184 171 178 184 208 195 187 170 168
197 198 197 193 195 198 201 201 204 209 203 197 189 188 191 197 204 203 206 202 190 191 197 204 195 186 145 161 161 173 196 192 185 184 183 180 159 191 204 214 226 192 189
188 196 197 200 200 198 192 195 200 189 181 183 191 196 194 183 184 193 206 207 206 202 202 202 187 197 210 179 182 163 183 194 179 170 178 179 175 220 215 219 216 208 206
185 197 195 197 197 199 196 193 191 186 191 192 188 190 197 196 196 196 201 205 216 209 198 192 198 192 170 166 182 183 180 190 194 182 172 183 196 216 232 204 209 208 210
194 198 196 199 198 197 200 203 204 202 213 216 213 216 209 198 201 211 213 221 220 207 205 204 207 206 199 194 187 186 203 197 205 222 223 201 201 211 235 221 213 215 207
206 204 206 210 209 204 205 209 217 223 232 223 220 225 226 220 209 227 223 218 208 211 211 208 212 214 201 191 195 193 215 225 222 219 229 226 210 210 216 250 212 202 207
217 221 223 223 222 219 217 218 225 230 228 219 221 218 226 220 225 234 226 216 221 214 211 206 213 204 198 201 210 214 240 233 221 220 215 210 214 221 223 233 235 221 217
214 218 221 226 225 222 224 225 228 235 227 227 227 225 228 227 227 245 234 232 231 223 216 209 209 206 212 218 220 226 234 234 216 221 222 215 222 229 231 231 234 234 239
217 222 225 224 225 227 232 234 237 243 239 235 235 237 238 233 233 238 248 264 227 224 209 203 204 203 208 203 205 219 227 236 241 233 222 221 226 226 228 232 227 230 237
221 222 225 228 230 233 237 238 241 245 246 239 234 234 235 241 239 246 251 262 242 226 212 204 205 202 203 201 202 210 209 232 232 228 227 225 226 231 238 240 233 233 235
226 225 227 231 235 238 238 237 239 241 243 242 238 238 240 245 246 248 250 249 249 230 214 210 208 212 209 209 211 217 222 209 201 217 220 220 220 230 231 232 232 238 242
225 228 230 231 235 238 240 242 245 245 247 249 247 241 244 246 246 247 252 251 247 242 222 214 215 214 214 215 219 221 229 241 219 224 238 223 228 233 229 232 235 234 237
225 231 235 236 239 240 242 245 247 246 242 245 246 246 246 248 249 253 251 250 249 244 228 215 215 218 223 226 231 225 227 231 241 239 239 222 225 236 248 243 246 248 241